Regional Weather Roundup
Issued by NWS

Home | Current Version | Previous Version | Graphics & Text | Print | Product List | Glossary On
Versions: 1 2 3 4 5 6 7 8 9 10 11 12 13 14 15 16 17 18 19 20 21 22 23 24 25 26 27 28 29 30 31 32 33 34 35 36 37 38 39 40 41 42 43 44 45 46 47 48 49 50
202
ASUS43 KMKX 231811
RWRWI

WISCONSIN REGIONAL WEATHER ROUNDUP
NATIONAL WEATHER SERVICE MILWAUKEE/SULLIVAN WI
100 PM CDT WED AUG 23 2017

NOTE: "FAIR" INDICATES FEW OR NO CLOUDS BELOW 12,000 FEET WITH NO
SIGNIFICANT WEATHER AND/OR OBSTRUCTIONS TO VISIBILITY.

WIZ001-002-006>008-014>016-023>028-231900-
NORTHWEST WISCONSIN

CITY           SKY/WX    TMP DP  RH WIND       PRES   REMARKS
SUPERIOR ARPT    N/A     65  48  54 N6        30.08F
6HR MIN TEMP:  48; 6HR MAX TEMP:  66;

ASHLAND        MOSUNNY   65  49  56 NW9       30.09S
6HR MIN TEMP:  53; 6HR MAX TEMP:  67;

HAYWARD        PTSUNNY   64  47  53 VRB5      30.10S
6HR MIN TEMP:  46; 6HR MAX TEMP:  64;

SIREN          PTSUNNY   65  47  51 N6        30.09F
6HR MIN TEMP:  47; 6HR MAX TEMP:  67;

CUMBERLAND     PTSUNNY   63  46  55 N12       30.10S
RICE LAKE      PTSUNNY   66  48  50 N10       30.10F
6HR MIN TEMP:  49; 6HR MAX TEMP:  67;

CHETEK         MOSUNNY   67  52  57 NW7       30.09S
6HR MIN TEMP:  49; 6HR MAX TEMP:  67;

LADYSMITH      PTSUNNY   64  49  58 NW12G20   30.09F
6HR MIN TEMP:  53; 6HR MAX TEMP:  67;

EAU CLAIRE     MOSUNNY   70  50  49 NW7       30.07F
6HR MIN TEMP:  52; 6HR MAX TEMP:  70;

MENOMONIE      MOSUNNY   69  51  51 NW9G17    30.09S
6HR MIN TEMP:  53; 6HR MAX TEMP:  70;

NEW RICHMOND   MOSUNNY   70  51  51 NW13      30.10F
6HR MIN TEMP:  50; 6HR MAX TEMP:  70;

OSCEOLA        MOSUNNY   69  51  54 NW9       30.13S
6HR MIN TEMP:  47; 6HR MAX TEMP:  69;

$$

WIZ003>005-009-010-017-018-231900-
NORTH CENTRAL WISCONSIN

CITY           SKY/WX    TMP DP  RH WIND       PRES   REMARKS
MANITOWISH WTR PTSUNNY   60  50  68 NW12G21   30.06S
6HR MIN TEMP:  53; 6HR MAX TEMP:  62;

ARBOR VITAE    MOSUNNY   63  49  61 N17       30.06R
6HR MIN TEMP:  57; 6HR MAX TEMP:  64;

WOODRUFF       MOSUNNY   63  49  61 N17       30.06R
6HR MIN TEMP:  57; 6HR MAX TEMP:  64;

RHINELANDER    CLOUDY    63  49  60 VRB6G18   30.05F
6HR MIN TEMP:  53; 6HR MAX TEMP:  65;

EAGLE RIVER    MOSUNNY   64  46  52 NW15G22   30.04S
6HR MIN TEMP:  53; 6HR MAX TEMP:  64;

LAND O LAKES   PTSUNNY   61  46  56 NW8       30.07S
6HR MIN TEMP:  52; 6HR MAX TEMP:  62;

PHILLIPS       PTSUNNY   62  47  59 N7G16     30.07S
6HR MIN TEMP:  48; 6HR MAX TEMP:  64;

TOMAHAWK         N/A     62  47  58 NW7       30.06S
6HR MIN TEMP:  51; 6HR MAX TEMP:  64;

MEDFORD        MOSUNNY   65  50  58 NW9       30.06F
6HR MIN TEMP:  48; 6HR MAX TEMP:  65;

MERRILL        MOSUNNY   66  52  59 NW12      30.06S
$$

WIZ029-030-035-036-043>047-231900-
CENTRAL WISCONSIN

CITY           SKY/WX    TMP DP  RH WIND       PRES   REMARKS
WAUSAU         MOSUNNY   68  49  50 W12G18    30.03F
6HR MIN TEMP:  53; 6HR MAX TEMP:  68;

MOSINEE        MOSUNNY   66  50  55 NW13      30.06F
MARSHFIELD     MOSUNNY   69  48  47 NW17      30.06S
6HR MIN TEMP:  52; 6HR MAX TEMP:  69;

STEVENS POINT  MOSUNNY   67  48  50 N15       30.05S
6HR MIN TEMP:  51; 6HR MAX TEMP:  67;

WAUPACA        MOSUNNY   73  49  42 NW12      30.03S
6HR MIN TEMP:  56; 6HR MAX TEMP:  73;

WAUTOMA        MOSUNNY   71  50  47 NW10G20   30.04F
6HR MIN TEMP:  53; 6HR MAX TEMP:  72;

WISC RAPIDS    PTSUNNY   69  51  52 N14       30.06F
6HR MIN TEMP:  51; 6HR MAX TEMP:  71;

CAMP DOUGLAS   MOSUNNY   70  52  52 NW10      30.06F
$$

WIZ011>013-019>022-031-037>040-048>050-231900-
NORTHEAST WISCONSIN

CITY           SKY/WX    TMP DP  RH WIND       PRES   REMARKS
ANTIGO         MOSUNNY   65  52  63 NW12G17   30.04S
6HR MIN TEMP:  52; 6HR MAX TEMP:  65;

SHAWANO        PTSUNNY   71  51  49 W6        30.01F
OCONTO         CLOUDY    68  49  49 NW6       30.00S
6HR MIN TEMP:  53; 6HR MAX TEMP:  69;

STURGEON BAY   PTSUNNY   66  52  60 N13       30.01F
6HR MIN TEMP:  58; 6HR MAX TEMP:  66;

GREEN BAY      PTSUNNY   71  58  63 NW5       30.01F
6HR MIN TEMP:  54; 6HR MAX TEMP:  71;

MANITOWOC      PTSUNNY   68  52  56 NW7       30.02F
6HR MIN TEMP:  56; 6HR MAX TEMP:  68;

APPLETON       PTSUNNY   70  46  43 N14G23    30.01F
CLINTONVILLE   MOSUNNY   68  48  49 NW10      30.03S
OSHKOSH        MOSUNNY   70  52  52 NW10G20   30.02F
6HR MIN TEMP:  54; 6HR MAX TEMP:  70;

$$

WIZ032>034-041-042-053>061-231900-
SOUTHWEST WISCONSIN

CITY           SKY/WX    TMP DP  RH WIND       PRES   REMARKS
LA CROSSE      MOSUNNY   75  53  46 NW8       30.07F
6HR MIN TEMP:  56; 6HR MAX TEMP:  76;

SPARTA         PTSUNNY   70  52  53 NW7       30.08F
6HR MIN TEMP:  45; 6HR MAX TEMP:  71;

VIROQUA        PTSUNNY   69  54  59 NW12      30.09F
6HR MIN TEMP:  51; 6HR MAX TEMP:  69;

BOSCOBEL       MOSUNNY   75  51  43 NW7G17    30.08F
6HR MIN TEMP:  52; 6HR MAX TEMP:  76;

PRAIRIE DU CHI MOSUNNY   74  47  38 NW10G17   30.07F
6HR MIN TEMP:  54; 6HR MAX TEMP:  74;

PLATTEVILLE    MOSUNNY   71  53  53 NW14      30.08F
6HR MIN TEMP:  51; 6HR MAX TEMP:  72;

$$

WIZ056-057-062-063-064-067-068-231900-
SOUTH CENTRAL WISCONSIN

CITY           SKY/WX    TMP DP  RH WIND       PRES   REMARKS
REEDSBURG      MOSUNNY   70  50  48 NW10      30.06S
6HR MIN TEMP:  50; 6HR MAX TEMP:  72;

BARABOO/DELLS  PTSUNNY   70  46  41 NW13G21   30.06S
6HR MIN TEMP:  55; 6HR MAX TEMP:  71;

LONE ROCK      MOSUNNY   71  54  54 W10       30.06F
6HR MIN TEMP:  51; 6HR MAX TEMP:  74;

MINERAL POINT  MOSUNNY   73  52  46 NW7       30.08F
MADISON        PTSUNNY   69  52  54 W9        30.05F
6HR MIN TEMP:  56; 6HR MAX TEMP:  72;

MIDDLETON      PTSUNNY   73  51  46 NW10G18   30.07S
6HR MIN TEMP:  56; 6HR MAX TEMP:  74;

WATERTOWN      PTSUNNY   71  53  53 W9        30.04F
6HR MIN TEMP:  55; 6HR MAX TEMP:  71;

MONROE         MOSUNNY   70  50  49 NW7       30.07S
JANESVILLE     PTSUNNY   73  50  43 NW13G18   30.05F
$$

WIZ051-052-058>065-066-070>072-231900-
SOUTHEAST WISCONSIN

CITY           SKY/WX    TMP DP  RH WIND       PRES   REMARKS
MILWAUKEE      PTSUNNY   74  50  42 NW10      30.03S
6HR MIN TEMP:  62; 6HR MAX TEMP:  75;

WAUKESHA       MOSUNNY   70  50  49 W12G17    30.05F
MILWAUKEE/TIMM PTSUNNY   70  46  43 N12       30.04S
RACINE         PTSUNNY   73  51  46 NW13      30.05S
6HR MIN TEMP:  58; 6HR MAX TEMP:  74;

KENOSHA        MOSUNNY   74  51  44 NW14G21   30.04F
6HR MIN TEMP:  56; 6HR MAX TEMP:  75;

FOND DU LAC    PTSUNNY   70  50  49 N8        30.03F
6HR MIN TEMP:  56; 6HR MAX TEMP:  71;

SHEBOYGAN      MOSUNNY   70  53  54 NW10      30.02F
6HR MIN TEMP:  56; 6HR MAX TEMP:  70;

WEST BEND      MOSUNNY   68  50  52 NW10      30.03F
JUNEAU         MOSUNNY   68  51  54 NW3       30.06S
6HR MIN TEMP:  54; 6HR MAX TEMP:  68;

$$

LSZ147-162-231900-
LAKE SUPERIOR

STATION/POSITION TIME  TEMP    WIND        PRES    WAVE
                       AIR SEA DIR/SP/G            HT/PER
                 (UTC) (F)     (DEG/KT/KT) (MB)    (FT/S)
W MID LAKE BUOY  1750   58 59  300/ 10/ 12 1017.9F   2/ 3
DEVILS ISLAND    1800   59     280/  4/  5 1019.1F
PORT WING        1630   77     290/  5/  7 1019.3
SAXON HARBOR     1730   61      10/ 10/ 13 1018.6S
$$

LMZ867-665-643>646-231900-
LAKE MICHIGAN

STATION/POSITION TIME  TEMP    WIND        PRES    WAVE
                       AIR SEA DIR/SP/G            HT/PER
                 (UTC) (F)     (DEG/KT/KT) (MB)    (FT/S)
S GREEN BAY BUOY 1800   66 70  350/ 12/ 14 1015.8
N MID LAKE BUOY  1750   62 66  320/ 12/ 14 1015.9R   2/ 4
NORTHPORT PIER   1740   65     320/  9/ 14 1015.6S
KEWAUNEE LAKESHO 1748   67     310/  6/



USA.gov is the U.S. government's official web portal to all federal, state and local government web resources and services.